www.pogodaiklimat.ru

Погода и климат >> Архив погоды >> Индия >> Nagpur


ПОГОДА в Nagpur

  • Прогноз погоды в Nagpur
  • Монитор погоды в Nagpur
  • Климат города

АРХИВ ПОГОДЫ в Nagpur

Время (UTC), дата Ветер
(напр.,м/с)
 
Видим.   Явления Облачность Т
(С)
Тd
(С)
f
(%)
Тe
(С)
Тes
(С)
Комфортность P
(гПа)
Po
(гПа)
Тmin
(С)
Tmax
(С)
R
(мм)
R24
(мм)
S
(см)
00 10.08 ЮЗ 2 2000 м мгла 8/4 600 м
[Sc Ac trans]
+23.6 +23.0 96 +31 +31 очень
душно
1003.4 1003.0 16
03 10.08 З 2 2000 м мгла 8/3 600 м
[Sc Ac trans]
+26.4 +24.4 89 +37 +40 очень
душно
1004.5 1005.0 +23.1 16
06 10.08 З 4 4000 м мгла 8/6 600 м
[Cu Sc Ac trans]
+30.8 +24.2 68 +43 +47 опасность
перегрева
1004.5 1005.0
09 10.08 З 5 4000 м мгла 8/5 600 м
[Cu Sc Ci sp]
+32.4 +23.8 61 +44 +48 опасность
перегрева
1002.2 1002.0
12 10.08 ЮЗ 2 4000 м мгла 8/4 600 м
[Cu Sc Ci sp]
+31.0 +23.8 66 +43 +43 опасность
перегрева
1001.1 1001.0 +33.0
15 10.08 штиль 0 2000 м мгла 8/3 600 м
[Sc Ac trans]
+26.8 +24.8 89 +38 +38 очень
душно
1004.2 1004.0
18 10.08 штиль 0 2000 м мгла 6/3 600 м
[Sc Ac trans]
+25.8 +24.4 92 +36 +36 очень
душно
1004.8 1005.0
21 10.08 штиль 0 2000 м мгла 5/3 600 м
[Sc Ac trans]
+24.8 +24.2 96 +34 +34 очень
душно
1003.5 1004.0
00 11.08 Ю 2 2000 м мгла 5/3 600 м
[Sc Ac trans]
+24.4 +24.0 98 +34 +34 очень
душно
1004.3 1004.0
03 11.08 СЗ 3 2000 м мгла 6/0
[Ci fib]
+27.6 +23.8 80 +38 +44 очень
душно
1004.8 1005.0 +23.8
06 11.08 З 4 4000 м мгла 9/5 600 м
[Cu Sc Ac trans]
+31.2 +23.4 63 +42 +46 опасность
перегрева
1004.7 1005.0
09 11.08 З 4 4000 м мгла 9/6 600 м
[Sc diur, vesp Ac trans]
+32.4 +23.8 61 +44 +46 опасность
перегрева
1002.7 1003.0
12 11.08 З 2 2000 м мгла {дождь} 8/5 600 м
[Sc diur, vesp Ac trans]
+29.0 +26.2 85 +44 +45 опасность
перегрева
1001.9 1002.0 +33.1 4
15 11.08 С 1 2000 м мгла 6/6 600 м
[Cb cap]
+26.6 +24.3 87 +37 +37 очень
душно
1004.4 1004.0 4
18 11.08 штиль 0 2000 м мгла 6/4 600 м
[Cu Sc Ac trans]
+25.4 +24.5 95 +36 +36 очень
душно
1005.1 1005.0 4
21 11.08 ЮЗ 2 2000 м мгла 8/3 600 м
[Sc Ac trans]
+25.4 +24.2 93 +35 +35 очень
душно
1003.9 1004.0 4
00 12.08 штиль 0 2000 м мгла 6/3 600 м
[Sc Ac trans]
+24.4 +23.5 95 +33 +33 очень
душно
1004.5 1005.0 4
03 12.08 З 3 4000 м мгла 8/3 600 м
[Sc Ac trans]
+26.4 +23.2 83 +36 +38 очень
душно
1006.6 1007.0 +23.9 4
06 12.08 З 5 4000 м 9/6 600 м
[Sc Ac trans]
+30.4 +23.1 65 +41 +43 опасность
перегрева
1005.9 1006.0
09 12.08 З 3 4000 м мгла 6/5 600 м
[Cu Sc Ac trans]
+32.2 +23.9 62 +44 +50 опасность
перегрева
1003.2 1003.0
12 12.08 СЗ 3 4000 м мгла 8/4 600 м
[Sc Ac trans]
+31.2 +23.1 62 +41 +42 опасность
перегрева
1002.5 1003.0 +33.6
15 12.08 штиль 0 2000 м мгла 8/3 600 м
[Sc Ac trans]
+28.4 +24.1 78 +40 +40 очень
душно
1004.3 1004.0
18 12.08 штиль 0 2000 м мгла 8/3 600 м
[Sc Ac trans]
+27.0 +24.7 87 +38 +38 очень
душно
1005.1 1005.0
21 12.08 штиль 0 2000 м мгла 8/3 600 м
[Sc Ac trans]
+26.2 +24.5 90 +37 +37 очень
душно
1004.4 1004.0
00 13.08 штиль 0 2000 м мгла 6/3 600 м
[Sc Ac trans]
+25.2 +24.0 93 +35 +35 очень
душно
1004.7 1005.0
03 13.08 З 3 4000 м мгла 5/1 600 м
[Sc Ac trans]
+28.4 +23.5 75 +39 +43 очень
душно
1006.7 1007.0 +24.3
06 13.08 З 4 4000 м мгла 8/6 600 м
[Cu Sc Ac trans]
+31.0 +23.2 63 +41 +45 опасность
перегрева
1006.9 1007.0
09 13.08 СЗ 3 4000 м мгла 8/5 600 м
[Cu Sc Ac trans]
+31.6 +22.9 60 +42 +46 опасность
перегрева
1004.8 1005.0
12 13.08 З 3 4000 м мгла 6/4 600 м
[Cu Sc Ac trans]
+31.8 +23.1 60 +42 +43 опасность
перегрева
1004.1 1004.0 +33.4
15 13.08 штиль 0 4000 м мгла 5/3 600 м
[Sc Ac trans]
+27.6 +23.8 80 +38 +38 очень
душно
1006.6 1007.0
18 13.08 штиль 0 2000 м мгла 6/3 600 м
[Sc Ac trans]
+27.2 +24.3 84 +38 +38 очень
душно
1007.8 1008.0
21 13.08 ЮЗ 1 2000 м мгла 8/3 600 м
[Sc Ac trans]
+26.4 +24.1 87 +37 +37 очень
душно
1006.8 1007.0
00 14.08 З 2 2000 м мгла 9/4 600 м
[Sc Ac trans]
+25.4 +22.7 85 +33 +33 очень
душно
1008.0 1008.0
03 14.08 З 3 4000 м мгла 8/4 600 м
[Sc Ac trans]
+27.2 +23.7 81 +37 +40 очень
душно
1009.1 1009.0 +24.8
06 14.08 З 3 2000 м слабый дождь 10/5 450 м
[Sc As op]
+27.2 +24.9 87 +39 +41 очень
душно
1009.2 1009.0 0.8
09 14.08 З 3 4000 м мгла {дождь} 9/6 600 м
[Cu Sc Ac trans]
+30.4 +24.7 72 +43 +46 опасность
перегрева
1005.6 1006.0 0.8
12 14.08 ЮЗ 2 4000 м мгла {дождь} 8/3 750 м
[Cu hum Ac trans]
+29.8 +24.7 74 +42 +43 опасность
перегрева
1004.8 1005.0 +31.9 0.8
15 14.08 штиль 0 4000 м мгла 8/4 450 м
[Cb cap Ac trans]
+27.4 +24.5 84 +39 +39 очень
душно
1007.3 1007.0 0.8
18 14.08 штиль 0 2000 м мгла 6/3 450 м
[Sc Ac trans]
+25.0 +23.5 91 +34 +34 очень
душно
1007.8 1008.0 0.8
21 14.08 З 1 2000 м мгла 6/3 450 м
[Sc Ac trans]
+24.6 +23.4 93 +33 +33 очень
душно
1006.9 1007.0 0.8
00 15.08 З 1 2000 м мгла 9/4 450 м
[Sc Ac trans]
+24.8 +23.6 93 +34 +34 очень
душно
1006.9 1007.0 0.8
03 15.08 СЗ 4 4000 м мгла 4/0
[Ac trans Ci fib]
+28.4 +24.4 79 +40 +44 очень
душно
1007.4 1007.0 +24.0 0.8
06 15.08 З 3 4000 м 5/5 600 м
[Cu Sc]
+32.2 +24.8 65 +45 +55 опасность
перегрева
1006.8 1007.0
09 15.08 С 3 4000 м мгла 8/8 600 м
[Cb cap]
+31.4 +23.6 63 +42 +45 опасность
перегрева
1002.7 1003.0
12 15.08 Ю 2 4000 м мгла 9/5 600 м
[Sc diur, vesp Ac trans]
+30.6 +24.6 70 +43 +43 опасность
перегрева
1003.1 1003.0 +34.5
15 15.08 Ю 2 2000 м мгла 8/4 600 м
[Sc Ac trans]
+27.0 +24.2 85 +38 +38 очень
душно
1004.8 1005.0
18 15.08 ЮЗ 1 2000 м мгла 5/3 600 м
[Sc Ac trans]
+25.8 +24.1 90 +36 +36 очень
душно
1005.8 1006.0
21 15.08 ЮЗ 1 2000 м мгла 5/3 600 м
[Sc Ac trans]
+25.4 +23.9 91 +35 +35 очень
душно
1003.9 1004.0
00 16.08 штиль 0 2000 м мгла 5/3 600 м
[Sc Ac trans]
+24.6 +23.1 91 +33 +33 очень
душно
1005.1 1005.0
03 16.08 СЗ 3 4000 м мгла 6/0
[Ac trans Ci fib]
+28.0 +24.9 83 +40 +45 очень
душно
1006.0 1006.0 +23.7
06 16.08 СЗ 3 4000 м мгла 5/4 600 м
[Sc Ac trans Ci fib]
+31.6 +23.5 62 +42 +52 опасность
перегрева
1004.8 1005.0
09 16.08 СЗ 4 4000 м мгла 6/6 600 м
[Sc diur, vesp]
+33.2 +20.7 48 +40 +44 очень
душно
1001.5 1002.0
12 16.08 З 3 4000 м мгла 6/3 750 м
[Cu hum Ac trans]
+32.6 +24.3 62 +45 +46 опасность
перегрева
1000.2 1000.0 +34.5
15 16.08 З 1 4000 м мгла 6/0
[Ac trans Ci fib]
+28.4 +23.1 73 +38 +38 очень
душно
1002.5 1003.0
18 16.08 СЗ 2 2000 м мгла 6/0
[Ac trans Ci fib]
+27.2 +23.7 81 +37 +37 очень
душно
1002.5 1003.0
21 16.08 З 3 2000 м мгла 8/0
[Ac trans Ci fib]
+26.2 +23.3 84 +35 +35 очень
душно
1001.5 1002.0

 

Местоположение метеостанции Nagpur (Maharashtra, Индия): широта 21.10 долгота 79.05 высота над уровнем моря 310 м.

В архиве по умолчанию представлена погода в Nagpur за последнюю неделю. Архивные данные за месяц целиком и за предыдущие месяцы, начиная с января 2011 года, Вы можете получить, выбрав интересующий диапазон дат из раскрывающегося списка и нажав кнопку "Ввод!".

Внимание! Время в таблицах - всемирное. Для получения местного времени необходимо прибавить поправку, которая в Nagpur равна 5.5 ч.

Смотрите также архив погоды в соседних городах и на ближайших метеорологических станциях:

Погода в Wardha (Maharashtra, Индия) (68 км)
Погода в Bramhapuri (Maharashtra, Индия) (100 км)
Погода в Chhindwara (Madhya Pradesh, Индия) (111 км)
Погода в Seoni (Madhya Pradesh, Индия) (121 км)
Погода в Yeotmal (Maharashtra, Индия) (122 км)
Погода в Gondia (Maharashtra, Индия) (126 км)
Погода в Chandrapur (Maharashtra, Индия) (128 км)
Погода в Amraoti (Maharashtra, Индия) (133 км)
Погода в Betul (Madhya Pradesh, Индия) (144 км)
Погода в Pachmarhi (Madhya Pradesh, Индия) (165 км)

Пояснения к столбцам:

Ветер - указаны скорость ветра в м/с - средняя за 10 мин, порывы в срок и между сроками (в фигурных скобках) и направление, откуда дует ветер: С - северный, СВ - северо-восточный, В - восточный, ЮВ - юго-восточный, Ю - южный, ЮЗ - юго-западный, З - западный, СЗ - северо-западный.
Видимость - горизонтальная дальность видимости в метрах или километрах. При видимости от 1 до 10 км при отсутствии осадков обычно наблюдается дымка, при ухудшении видимости до 1 км и менее - туман. В сухую погоду видимость может ухудшаться дымом, пылью или мглою.
Явления - указаны атмосферные явления, наблюдавшиеся в срок или в последний час перед сроком; фигурными скобками обозначены явления, наблюдавшиеся между сроками (за 1-3 часа до срока); квадратными скобками обозначены град или гололедные отложения с указанием их диаметра в мм.
Облачность - указаны через наклонную черту общая и нижняя облачность в баллах и высота нижней границы облаков в метрах; квадратными скобками обозначены формы облаков: Ci - перистые, Cs - перисто-слоистые, Cc - перисто-кучевые, Ac - высококучевые, As - высокослоистые, Sc - слоисто-кучевые, Ns - слоисто-дождевые, Cu - кучевые, Cb - кучево-дождевые. Подробнее классификацию облаков см. в Атласе облаков (PDF).
T - Температура воздуха - температура, измеренная на высоте 2 м над землей.
Td - Температура точки росы - температура, при понижении до которой содержащийся в воздухе водяной пар достигнет насыщения.
f - Относительная влажность воздуха - влажноcть воздуха, измеренная на высоте 2 м над землей.
Te - Эффективная температура - температура, которую ощущает одетый по сезону человек в тени. Характеристика душности погоды. При расчете учитывается влияние влажности воздуха и скорости ветра на теплоощущения человека.
Tes - Эффективная температура на солнце - температура, которую ощущает человек, с поправкой на солнечный нагрев. Характеристика знойности погоды. Зависит от высоты солнца над горизонтом, облачности и скорости ветра. Ночью, в пасмурную погоду, а также при ветре 12 м/с и более поправка равна нулю.
P - Атмосферное давление - приведенное к уровню моря атмосферное давление.
Po - Атмосферное давление - измеренное на уровне метеостанции атмосферное давление.
Tmin - Минимальная температура - минимум температуры воздуха на высоте 2 м над землей.
Tmax - Максимальная температура - максимум температуры воздуха на высоте 2 м над землей.
R - Количество осадков - Количество выпавших осадков за период времени, мм. При наведении курсора мыши на число - период времени, за который выпало указанное количество осадков.
R24 - Количество осадков - Количество выпавших осадков за 24 часа, мм.
S - Снежный покров - Высота снежного покрова, см. При наведении курсора мыши на число - состояние снежного покрова и степень покрытия местности в баллах.